GW0503 Weather Reports


time (UTC)temp
C
wind
direction
speed
KPH
gust
KPH
rain 1hr
cm
rain 24hr
cm
rain mn
cm
humidity
%
barometer
mb
20260504044619 3 28 8.0 22.5 0.03 1.91 0.05 96 975.1
20260504043057 3 89 9.7 27.4 0.05 1.91 0.05 96 975.7
20260504041556 3 99 11.3 33.8 0.03 1.88 0.03 95 976.4
20260504040124 3 118 14.5 30.6 0.03 1.88 0.03 95 977.2
20260504034614 4 87 11.3 32.2 0.03 1.88 0.03 95 978.3
20260504033059 4 83 14.5 32.2 0.00 1.85 0.00 95 978.9
20260504031555 4 97 12.9 38.6 0.03 1.85 0.00 96 979.3
20260504030059 5 102 12.9 29.0 0.03 1.85 0.00 96 980.0
20260504024600 5 78 9.7 25.7 0.03 1.85 1.85 97 980.9
20260504023056 5 85 11.3 29.0 0.05 1.85 1.85 98 981.2
20260504021556 4 79 11.3 29.0 0.05 1.83 1.83 98 982.0
20260504020056 3 32 12.9 38.6 0.08 1.83 1.83 97 982.5
20260504014559 3 28 30.6 49.9 0.15 1.83 1.83 97 983.2
20260504013116 3 67 19.3 45.1 0.18 1.80 1.80 97 984.3
20260504011556 3 41 19.3 46.7 0.20 1.78 1.78 97 984.9
20260504010105 3 79 12.9 37.0 0.23 1.75 1.75 97 986.1
20260504004611 3 41 14.5 33.8 0.25 1.68 1.68 97 987.6
20260504003058 3 170 19.3 41.8 0.38 1.63 1.63 98 987.8
20260504001609 3 57 22.5 40.2 0.46 1.57 1.57 97 988.9
20260504000136 3 74 27.4 51.5 0.48 1.52 1.52 98 989.6
20260503234559 3 14 27.4 48.3 0.46 1.42 1.42 98 990.1
20260503233057 3 37 24.1 40.2 0.38 1.24 1.24 98 991.3
20260503231558 2 28 19.3 43.5 0.33 1.12 1.12 98 992.6
20260503224555 2 34 20.9 37.0 0.33 0.94 0.94 97 994.4
20260503223057 2 339 17.7 33.8 0.30 0.86 0.86 97 995.5
20260503221558 2 34 12.9 32.2 0.36 0.79 0.79 97 996.0
20260503220118 2 70 9.7 25.7 0.38 0.71 0.71 97 996.3
20260503214558 2 72 14.5 29.0 0.30 0.61 0.61 97 996.6
20260503213058 1 38 19.3 40.2 0.25 0.56 0.56 97 997.1
20260503211559 1 37 22.5 40.2 0.13 0.43 0.43 97 997.1
20260503210057 1 51 12.9 38.6 0.05 0.33 0.33 96 998.2
20260503204603 1 38 16.1 41.8 0.05 0.30 0.30 96 998.8
20260503203059 2 41 14.5 43.5 0.10 0.30 0.30 96 999.9
20260503201555 2 95 22.5 43.5 0.10 0.30 0.30 96 999.6
20260503194602 2 14 19.3 37.0 0.23 0.25 0.25 95 1001.2
20260503193100 2 14 19.3 33.8 0.20 0.20 0.20 95 1001.8
20260503191556 3 64 19.3 38.6 0.20 0.20 0.20 94 1002.7
20260503190056 3 51 14.5 27.4 0.08 0.08 0.08 92 1003.9
20260503184606 3 70 16.1 29.0 0.03 0.03 0.03 89 1004.5
20260503183058 4 28 8.0 16.1 0.00 0.00 0.00 87 1005.6
20260503181602 5 14 11.3 20.9 0.00 0.00 0.00 85 1006.4
20260503180118 5 330 8.0 16.1 0.00 0.00 0.00 83 1007.2
20260503174556 6 83 8.0 27.4 0.00 0.00 0.00 80 1007.2
20260503173109 7 25 11.3 20.9 0.00 0.00 0.00 76 1007.9
20260503171556 7 29 9.7 19.3 0.00 0.00 0.00 74 1008.0
20260503170110 7 25 6.4 16.1 0.00 0.00 0.00 73 1008.2
20260503160114 7 28 6.4 12.9 0.00 0.00 0.00 77 1010.0
20260503110104 2 0 0.0 4.8 0.00 0.00 0.00 99 1014.7
20260503081556 -1 303 1.6 4.8 0.00 0.00 0.00 98 1015.9
20260503071612 -2 0 0.0 3.2 0.00 0.03 0.00 97 1016.1